SCOUT X-4 R/B, 933

Orbit data source: Space-Track

SCOUT X-4 R/B, 933 is space debris in LEO originally from a launch on Sat, 21 Nov 1964 UTC launched from the Air Force Western Test Range (AFWTR). Debris objects in space refer to the collection of defunct objects orbiting the Earth. Examples of debris include non-operational satellites, rocket bodies, and fragments generated from explosions, collisions, or faulty payload assembly.

Loading next visibility...
Identifier
933, 1964-076C
Orbit
LEO
Country
Flag of USUS
Related business
Manufacturer
ABL
Mission
Spacecraft
Bus & Motor
ALTAIR, Unknown motor
Mass
33 kg wet, 33 kg dry
Launch date (UTC)
1964-11-21 (61 years ago)
Launch vehicle
Unknown
Launch site
Air Force Western Test Range (AFWTR)
Object type
Payload
Rocket body
Debris
Shape & HBR
Unknown
Radar Cross Section
Medium (>0.1 m² and <1 m²)

Expand to show TLE details & history
Last TLE update: 13 hours ago

TLE from 13 hours ago
0 SCOUT X-4 R/B
1 00933U 64076C   26046.03457956  .00000790  00000-0  26559-3 0  9991
2 00933  81.3322 246.5382 1050437 279.2911  69.1077 12.82233270820928
Epoch: 2026-02-15T00:49Z
TLE epoch observation values (Epoch: 2026-02-15T00:49:47.673Z)
Latitude
Longitude
89.04049°
Altitude
1,124.503 km
Speed
7.389 km/s
True Right ascension
16h 26m 09s
True Declination
0° 00' 00"
Sunlit
Object was in daylight at epoch
Visualization orbit readout
Latitude
Unknown
Longitude
Unknown
Altitude
Unknown
Speed
Unknown
Apparent Right ascension
Unknown
Apparent Declination
Unknown
Sunlit
N/A
Visualization observer readout
Local Sidereal Time
16:12:52
Azimuth
Unknown
Elevation
Unknown
Doppler factor
Unknown
Orbital elements
Apogee altitude
2,139.474 km
Perigee altitude
520.133 km
Semi-major axis
7,707.94 km
Eccentricity
0.10504
Inclination
81.3322°
RAAN
246.5382°
Arg. of periapsis
279.2911°
True anomaly
80.82211°
Mean anomaly
69.1077°
Eccentric anomaly
74.91897°
Mean motion
3.20727 °/min
Orbital period
112.24 mins
BSTAR
0.00026559
Loading maneuver chart data...
Computing Atmospheric mass density...
Loading historical data...
Loading historical data...
Loading historical data...
Loading historical data...
Loading historical data...
Loading historical data...
Loading historical data...

Documentation

Showing up to 5 results
|